This demonstration page uses our WeatherBlox Daily Observations layout. Learn more.

Left ArrowRight Arrow

Hourly Observations for April 8, 2015

Temp ( °F °C ) Dew Point ( °F °C ) Humidity (%) Winds ( mph kmh ) Pressure ( in mb ) Visibility ( mi km ) Precip ( " mm )
12:16 am 00:16 Cloudy 50 10 N/A N/A ENE 6 9 30.09 1019 1.75 2.816345 N/A
12:35 am 00:35 Cloudy 50 10 N/A N/A ENE 6 9 30.06 1018 0.75 1.207005 N/A
12:56 am 00:56 Cloudy 50 10 N/A N/A E 5 7 30.06 1018 0.5 0.80467 N/A
1:16 am 01:16 Cloudy 50 10 N/A N/A E 5 7 30.06 1018 0.5 0.80467 N/A
1:35 am 01:35 Cloudy 50 10 N/A N/A E 3 6 30.06 1018 0.5 0.80467 N/A
1:56 am 01:56 Cloudy 52 11 N/A N/A E 5 7 30.06 1018 0.5 0.80467 N/A
2:16 am 02:16 Cloudy 52 11 N/A N/A ENE 3 6 30.06 1018 0.5 0.80467 N/A
2:35 am 02:35 Cloudy 52 11 N/A N/A Calm 30.06 1018 0.75 1.207005 N/A
2:56 am 02:56 Cloudy 52 11 N/A N/A Calm 30.06 1018 1 1.60934 N/A
3:15 am 03:15 Cloudy 54 12 N/A N/A SSE 6 9 30 1016 1.25 2.011675 N/A
3:36 am 03:36 Cloudy 54 12 N/A N/A Calm 30 1016 1.25 2.011675 N/A
3:56 am 03:56 Cloudy 54 12 N/A N/A SSE 5 7 30 1016 1.5 2.41401 N/A
4:15 am 04:15 Cloudy 55 13 N/A N/A SSE 6 9 30 1016 2 3.21868 N/A
4:36 am 04:36 Cloudy 55 13 N/A N/A SSE 8 13 29.97 1015 2.5 4.02335 N/A
4:56 am 04:56 Cloudy 57 14 N/A N/A S 8 13 29.97 1015 2.5 4.02335 N/A
5:16 am 05:16 Mostly Cloudy 57 14 N/A N/A S 7 11 29.97 1015 4 6.43736 N/A
5:36 am 05:36 Mostly Cloudy 57 14 N/A N/A S 9 15 29.97 1015 4 6.43736 N/A
5:56 am 05:56 Mostly Cloudy 57 14 N/A N/A S 9 15 29.97 1015 4 6.43736 N/A
6:15 am 06:15 Partly Cloudy 57 14 N/A N/A S 9 15 29.94 1014 4 6.43736 N/A
6:36 am 06:36 Partly Cloudy 57 14 N/A N/A S 8 13 29.94 1014 4 6.43736 N/A
6:56 am 06:56 Mostly Cloudy 57 14 N/A N/A S 9 15 29.94 1014 4 6.43736 N/A
7:15 am 07:15 Mostly Cloudy 57 14 N/A N/A SSE 6 9 29.94 1014 4 6.43736 N/A
7:36 am 07:36 Cloudy 57 14 N/A N/A SSE 6 9 29.94 1014 3 4.82802 N/A
7:56 am 07:56 Cloudy 57 14 N/A N/A S 5 7 29.94 1014 2.5 4.02335 N/A
8:15 am 08:15 Cloudy 57 14 N/A N/A S 7 11 29.94 1014 4 6.43736 N/A
8:36 am 08:36 Cloudy 57 14 N/A N/A SSE 9 15 29.94 1014 4 6.43736 N/A
8:56 am 08:56 Cloudy 57 14 N/A N/A SW 6 9 29.97 1015 3 4.82802 N/A
9:16 am 09:16 Cloudy 57 14 N/A N/A NNW 16 26 30.03 1017 1 1.60934 N/A
9:36 am 09:36 Cloudy 55 13 N/A N/A E 7 11 30.03 1017 4 6.43736 N/A
9:55 am 09:55 Cloudy 55 13 N/A N/A S 8 13 30.03 1017 7 11.26538 N/A
10:16 am 10:16 Cloudy 55 13 N/A N/A E 13 20 29.94 1014 10 16.0934 N/A
11:03 am 11:03 Sunny 55 13 N/A N/A S 12 19 29.94 1014 10 16.0934 N/A
11:15 am 11:15 Sunny 57 14 N/A N/A S 14 22 29.97 1015 10 16.0934 N/A
11:36 am 11:36 Sunny 59 15 N/A N/A S 12 19 29.97 1015 10 16.0934 N/A
11:56 am 11:56 Sunny 61 16 N/A N/A S 14 22 29.97 1015 10 16.0934 N/A
12:16 pm 12:16 Partly Cloudy 61 16 N/A N/A S 16 26 29.97 1015 10 16.0934 N/A
12:36 pm 12:36 Sunny 63 17 N/A N/A SSE 13 20 29.97 1015 10 16.0934 N/A
12:55 pm 12:55 Partly Cloudy 66 19 57 14 73 73 S 10 17 29.97 1015 10 16.0934 N/A
1:16 pm 13:16 Mostly Cloudy 66 19 57 14 73 73 S 12 19 29.97 1015 10 16.0934 N/A
1:36 pm 13:36 Cloudy 66 19 55 13 68 68 S 12 19 29.97 1015 10 16.0934 N/A
1:55 pm 13:55 Cloudy 68 20 55 13 64 64 S 13 20 29.97 1015 10 16.0934 N/A
2:16 pm 14:16 Cloudy 68 20 57 14 69 69 S 12 19 29.97 1015 10 16.0934 N/A
2:35 pm 14:35 Cloudy 68 20 59 15 73 73 S 13 20 29.97 1015 10 16.0934 N/A
2:56 pm 14:56 Cloudy 68 20 57 14 69 69 S 15 24 29.97 1015 10 16.0934 N/A
3:16 pm 15:16 Cloudy 68 20 59 15 73 73 SSW 15 24 29.94 1014 10 16.0934 N/A
3:35 pm 15:35 Cloudy 68 20 59 15 73 73 S 13 20 29.94 1014 10 16.0934 N/A
3:56 pm 15:56 Mostly Cloudy 70 21 59 15 69 69 SSW 10 17 29.91 1013 10 16.0934 N/A
4:16 pm 16:16 Mostly Cloudy 68 20 59 15 73 73 S 7 11 29.88 1012 10 16.0934 N/A
4:35 pm 16:35 Mostly Cloudy 68 20 59 15 73 73 S 12 19 29.88 1012 10 16.0934 N/A
4:56 pm 16:56 Mostly Cloudy 68 20 59 15 73 73 S 5 7 29.88 1012 10 16.0934 N/A
5:16 pm 17:16 Mostly Cloudy 68 20 61 16 78 78 Calm 29.88 1012 10 16.0934 N/A
5:35 pm 17:35 Cloudy 66 19 66 19 100 100 S 10 17 29.94 1014 5 8.0467 N/A
5:56 pm 17:56 Cloudy 61 16 57 14 88 88 SSW 16 26 29.94 1014 1 1.60934 N/A
6:15 pm 18:15 Cloudy 61 16 61 16 100 100 SSE 10 17 29.91 1013 7 11.26538 N/A
6:36 pm 18:36 Cloudy 61 16 55 13 83 83 N 13 20 29.94 1014 10 16.0934 N/A
6:55 pm 18:55 Cloudy 63 17 N/A N/A NNW 8 13 29.97 1015 2.5 4.02335 N/A
7:16 pm 19:16 Cloudy 63 17 N/A N/A SSE 12 19 29.97 1015 1.25 2.011675 N/A
7:36 pm 19:36 Cloudy 61 16 N/A N/A ESE 12 19 29.88 1012 7 11.26538 N/A
7:55 pm 19:55 Partly Cloudy 63 17 N/A N/A S 9 15 29.91 1013 7 11.26538 N/A
8:16 pm 20:16 Clear 63 17 N/A N/A S 13 20 29.94 1014 10 16.0934 N/A
8:36 pm 20:36 Clear 61 16 N/A N/A S 10 17 29.91 1013 10 16.0934 N/A
8:55 pm 20:55 Clear 61 16 N/A N/A S 9 15 29.91 1013 10 16.0934 N/A
9:16 pm 21:16 Clear 61 16 N/A N/A S 6 9 29.91 1013 10 16.0934 N/A
9:36 pm 21:36 Clear 61 16 N/A N/A SSE 7 11 29.91 1013 10 16.0934 N/A
9:55 pm 21:55 Clear 61 16 N/A N/A S 5 7 29.91 1013 10 16.0934 N/A
10:16 pm 22:16 Partly Cloudy 63 17 N/A N/A S 10 17 29.91 1013 10 16.0934 N/A
10:36 pm 22:36 Partly Cloudy 63 17 N/A N/A S 6 9 29.91 1013 10 16.0934 N/A
10:55 pm 22:55 Clear 63 17 N/A N/A SSE 5 7 29.91 1013 10 16.0934 N/A
11:16 pm 23:16 Clear 61 16 N/A N/A SSE 5 7 29.94 1014 10 16.0934 N/A
11:35 pm 23:35 Clear 63 17 N/A N/A S 3 6 29.94 1014 10 16.0934 N/A
11:56 pm 23:56 Clear 61 16 N/A N/A SSE 5 7 29.97 1015 7 11.26538 N/A

Powered by AerisWeather